| time (UTC) | temp F | wind direction | speed knots | gust knots | rain 1hr in | rain 24hr in | rain mn in | humidity % | barometer mb |
| 20260507113310 | 64 | 57 | 0.0 | 1.7 | 0.00 | 0.00 | 0.00 | 36 | 1011.8 |
| 20260507111510 | 66 | 56 | 1.7 | 4.3 | 0.00 | 0.00 | 0.00 | 33 | 1011.7 |
| 20260507110610 | 67 | 46 | 2.6 | 4.3 | 0.00 | 0.00 | 0.00 | 32 | 1011.8 |
| 20260507105710 | 67 | 25 | 2.6 | 5.2 | 0.00 | 0.00 | 0.00 | 33 | 1011.9 |
| 20260507104810 | 66 | 27 | 1.7 | 3.5 | 0.00 | 0.00 | 0.00 | 33 | 1012.0 |
| 20260507103910 | 66 | 29 | 0.9 | 2.6 | 0.00 | 0.00 | 0.00 | 34 | 1012.1 |
| 20260507103010 | 66 | 29 | 0.0 | 2.6 | 0.00 | 0.00 | 0.00 | 34 | 1012.1 |
| 20260507102110 | 67 | 0 | 0.0 | 0.0 | 0.00 | 0.00 | 0.00 | 33 | 1012.2 |
| 20260507101210 | 66 | 30 | 0.9 | 2.6 | 0.00 | 0.00 | 0.00 | 34 | 1012.3 |
| 20260507100310 | 68 | 30 | 1.7 | 3.5 | 0.00 | 0.00 | 0.00 | 33 | 1012.4 |
| 20260507095409 | 68 | 31 | 1.7 | 3.5 | 0.00 | 0.00 | 0.00 | 33 | 1012.4 |
| 20260507094510 | 67 | 37 | 1.7 | 3.5 | 0.00 | 0.00 | 0.00 | 33 | 1012.5 |
| 20260507093610 | 67 | 50 | 0.9 | 3.5 | 0.00 | 0.00 | 0.00 | 34 | 1012.5 |
| 20260507092710 | 67 | 50 | 1.7 | 2.6 | 0.00 | 0.00 | 0.00 | 34 | 1012.5 |
| 20260507090910 | 68 | 51 | 1.7 | 2.6 | 0.00 | 0.00 | 0.00 | 32 | 1012.5 |
| 20260507090010 | 68 | 51 | 1.7 | 2.6 | 0.00 | 0.00 | 0.00 | 32 | 1012.5 |
| 20260507085110 | 68 | 52 | 1.7 | 3.5 | 0.00 | 0.00 | 0.00 | 32 | 1012.6 |
| 20260507083310 | 68 | 55 | 0.0 | 2.6 | 0.00 | 0.00 | 0.00 | 32 | 1012.7 |
| 20260507081509 | 68 | 343 | 0.9 | 1.7 | 0.00 | 0.00 | 0.00 | 34 | 1012.8 |
| 20260507080609 | 68 | 342 | 1.7 | 2.6 | 0.00 | 0.00 | 0.00 | 33 | 1012.8 |
| 20260507075710 | 69 | 341 | 0.9 | 3.5 | 0.00 | 0.00 | 0.00 | 33 | 1012.8 |
| 20260507074810 | 68 | 340 | 0.9 | 2.6 | 0.00 | 0.00 | 0.00 | 34 | 1012.8 |
| 20260507073909 | 68 | 340 | 0.9 | 1.7 | 0.00 | 0.00 | 0.00 | 34 | 1012.9 |
| 20260507073009 | 68 | 339 | 0.0 | 1.7 | 0.00 | 0.00 | 0.00 | 34 | 1012.8 |
| 20260507072110 | 69 | 0 | 0.0 | 0.0 | 0.00 | 0.00 | 0.00 | 33 | 1012.7 |
| 20260507070310 | 71 | 337 | 1.7 | 3.5 | 0.00 | 0.00 | 0.00 | 31 | 1012.8 |
| 20260507065409 | 70 | 330 | 0.9 | 3.5 | 0.00 | 0.00 | 0.00 | 31 | 1012.7 |
| 20260507064509 | 70 | 299 | 0.0 | 2.6 | 0.00 | 0.00 | 0.00 | 32 | 1012.7 |
| 20260507062709 | 70 | 0 | 0.0 | 0.0 | 0.00 | 0.00 | 0.00 | 31 | 1012.6 |
| 20260507060909 | 71 | 0 | 0.0 | 0.0 | 0.00 | 0.00 | 0.00 | 31 | 1012.6 |
| 20260507060009 | 71 | 0 | 0.0 | 0.0 | 0.00 | 0.00 | 0.00 | 30 | 1012.6 |
| 20260507054209 | 72 | 0 | 0.0 | 0.0 | 0.00 | 0.00 | 0.00 | 29 | 1012.6 |
| 20260507053309 | 72 | 0 | 0.0 | 0.0 | 0.00 | 0.00 | 0.00 | 29 | 1012.7 |
| 20260507052409 | 72 | 0 | 0.0 | 0.0 | 0.00 | 0.00 | 0.00 | 29 | 1012.7 |
| 20260507051509 | 73 | 266 | 0.0 | 0.9 | 0.00 | 0.00 | 0.00 | 28 | 1012.7 |
| 20260507050609 | 74 | 265 | 0.9 | 1.7 | 0.00 | 0.00 | 0.00 | 27 | 1012.6 |
| 20260507045709 | 74 | 265 | 0.9 | 1.7 | 0.00 | 0.00 | 0.00 | 26 | 1012.5 |
| 20260507043909 | 75 | 266 | 1.7 | 2.6 | 0.00 | 0.00 | 0.00 | 26 | 1012.4 |
| 20260507042109 | 76 | 264 | 1.7 | 3.5 | 0.00 | 0.00 | 0.00 | 25 | 1012.2 |
| 20260507041209 | 76 | 264 | 1.7 | 2.6 | 0.00 | 0.00 | 0.00 | 25 | 1012.1 |
| 20260507040309 | 77 | 260 | 1.7 | 3.5 | 0.00 | 0.00 | 0.00 | 24 | 1012.1 |
| 20260507035409 | 77 | 253 | 1.7 | 3.5 | 0.00 | 0.00 | 0.00 | 24 | 1011.8 |
| 20260507034509 | 76 | 264 | 1.7 | 5.2 | 0.00 | 0.00 | 0.00 | 24 | 1011.8 |
| 20260507033609 | 76 | 253 | 0.9 | 3.5 | 0.00 | 0.00 | 0.00 | 24 | 1011.7 |
| 20260507032709 | 77 | 252 | 0.9 | 2.6 | 0.00 | 0.00 | 0.00 | 24 | 1011.6 |
| 20260507030009 | 78 | 255 | 1.7 | 3.5 | 0.00 | 0.00 | 0.00 | 23 | 1011.2 |
| 20260507025109 | 79 | 249 | 1.7 | 4.3 | 0.00 | 0.00 | 0.00 | 23 | 1011.2 |
| 20260507024209 | 79 | 286 | 1.7 | 3.5 | 0.00 | 0.00 | 0.00 | 22 | 1011.0 |
| 20260507023309 | 80 | 287 | 2.6 | 5.2 | 0.00 | 0.00 | 0.00 | 21 | 1010.9 |
| 20260507022409 | 80 | 286 | 3.5 | 6.1 | 0.00 | 0.00 | 0.00 | 21 | 1010.9 |
| 20260507021510 | 81 | 285 | 3.5 | 6.1 | 0.00 | 0.00 | 0.00 | 20 | 1010.7 |
| 20260507020609 | 81 | 272 | 2.6 | 6.1 | 0.00 | 0.00 | 0.00 | 20 | 1010.7 |
| 20260507015709 | 81 | 257 | 1.7 | 7.0 | 0.00 | 0.00 | 0.00 | 19 | 1010.7 |
| 20260507014809 | 82 | 247 | 2.6 | 7.8 | 0.00 | 0.00 | 0.00 | 20 | 1010.7 |
| 20260507013009 | 83 | 269 | 2.6 | 7.8 | 0.00 | 0.00 | 0.00 | 19 | 1010.7 |
| 20260507012109 | 83 | 269 | 2.6 | 6.1 | 0.00 | 0.00 | 0.00 | 19 | 1010.7 |
| 20260507011209 | 83 | 236 | 2.6 | 5.2 | 0.00 | 0.00 | 0.00 | 19 | 1010.7 |
| 20260507010309 | 83 | 212 | 3.5 | 7.8 | 0.00 | 0.00 | 0.00 | 19 | 1010.7 |
| 20260507005409 | 84 | 229 | 2.6 | 10.4 | 0.00 | 0.00 | 0.00 | 19 | 1010.7 |
| 20260507003609 | 85 | 260 | 5.2 | 10.4 | 0.00 | 0.00 | 0.00 | 18 | 1010.6 |
| 20260507002709 | 85 | 264 | 5.2 | 11.3 | 0.00 | 0.00 | 0.00 | 18 | 1010.6 |
| 20260507001809 | 85 | 270 | 3.5 | 11.3 | 0.00 | 0.00 | 0.00 | 18 | 1010.5 |
| 20260507000909 | 85 | 262 | 5.2 | 7.8 | 0.00 | 0.00 | 0.00 | 18 | 1010.6 |
| 20260506235109 | 86 | 285 | 3.5 | 7.0 | 0.00 | 0.00 | 0.00 | 18 | 1010.6 |
| 20260506234209 | 86 | 281 | 3.5 | 8.7 | 0.00 | 0.00 | 0.00 | 18 | 1010.7 |
| 20260506233309 | 86 | 266 | 2.6 | 8.7 | 0.00 | 0.00 | 0.00 | 18 | 1010.8 |
| 20260506232409 | 85 | 236 | 2.6 | 6.1 | 0.00 | 0.00 | 0.00 | 19 | 1010.9 |
| 20260506231509 | 85 | 285 | 3.5 | 9.6 | 0.00 | 0.00 | 0.00 | 18 | 1011.0 |
| 20260506230609 | 85 | 213 | 1.7 | 6.1 | 0.00 | 0.00 | 0.00 | 18 | 1011.1 |
| 20260506225709 | 84 | 166 | 2.6 | 7.0 | 0.00 | 0.00 | 0.00 | 20 | 1011.1 |
| 20260506224809 | 84 | 196 | 3.5 | 7.0 | 0.00 | 0.00 | 0.00 | 19 | 1011.2 |
| 20260506223909 | 86 | 270 | 3.5 | 8.7 | 0.00 | 0.00 | 0.00 | 18 | 1011.3 |
| 20260506223010 | 86 | 292 | 4.3 | 8.7 | 0.00 | 0.00 | 0.00 | 18 | 1011.4 |
| 20260506222109 | 86 | 281 | 4.3 | 9.6 | 0.00 | 0.00 | 0.00 | 19 | 1011.5 |
| 20260506221209 | 86 | 304 | 3.5 | 13.0 | 0.00 | 0.00 | 0.00 | 19 | 1011.7 |
| 20260506220309 | 84 | 270 | 3.5 | 9.6 | 0.00 | 0.00 | 0.00 | 19 | 1011.8 |
| 20260506215409 | 84 | 264 | 2.6 | 12.2 | 0.00 | 0.00 | 0.00 | 19 | 1011.9 |
| 20260506214509 | 83 | 321 | 3.5 | 7.0 | 0.00 | 0.00 | 0.00 | 19 | 1012.0 |
| 20260506213609 | 84 | 314 | 5.2 | 8.7 | 0.00 | 0.00 | 0.00 | 19 | 1012.2 |
| 20260506212709 | 86 | 301 | 3.5 | 9.6 | 0.00 | 0.00 | 0.00 | 18 | 1012.3 |
| 20260506211808 | 84 | 68 | 1.7 | 7.0 | 0.00 | 0.00 | 0.00 | 19 | 1012.4 |
| 20260506210908 | 83 | 314 | 4.3 | 7.8 | 0.00 | 0.00 | 0.00 | 19 | 1012.7 |
| 20260506210009 | 83 | 317 | 5.2 | 16.5 | 0.00 | 0.00 | 0.00 | 19 | 1012.8 |
| 20260506205110 | 84 | 277 | 5.2 | 10.4 | 0.00 | 0.00 | 0.00 | 19 | 1012.9 |
| 20260506204209 | 85 | 248 | 3.5 | 11.3 | 0.00 | 0.00 | 0.00 | 19 | 1013.1 |
| 20260506203309 | 84 | 263 | 3.5 | 8.7 | 0.00 | 0.00 | 0.00 | 19 | 1013.2 |
| 20260506202409 | 82 | 299 | 4.3 | 9.6 | 0.00 | 0.00 | 0.00 | 20 | 1013.2 |
| 20260506200608 | 84 | 280 | 4.3 | 12.2 | 0.00 | 0.00 | 0.00 | 20 | 1013.4 |
| 20260506195709 | 83 | 260 | 2.6 | 6.1 | 0.00 | 0.00 | 0.00 | 21 | 1013.4 |
| 20260506194808 | 83 | 258 | 4.3 | 9.6 | 0.00 | 0.00 | 0.00 | 20 | 1013.6 |
| 20260506193908 | 83 | 246 | 3.5 | 9.6 | 0.00 | 0.00 | 0.00 | 21 | 1013.6 |
| 20260506192110 | 84 | 262 | 4.3 | 10.4 | 0.00 | 0.00 | 0.00 | 21 | 1013.9 |
| 20260506190308 | 81 | 313 | 2.6 | 9.6 | 0.00 | 0.00 | 0.00 | 22 | 1014.0 |
| 20260506185408 | 80 | 191 | 2.6 | 6.1 | 0.00 | 0.00 | 0.00 | 24 | 1014.1 |
| 20260506184509 | 80 | 182 | 2.6 | 6.1 | 0.00 | 0.00 | 0.00 | 24 | 1014.2 |
| 20260506183608 | 81 | 270 | 4.3 | 10.4 | 0.00 | 0.00 | 0.00 | 24 | 1014.4 |
| 20260506180908 | 79 | 190 | 1.7 | 7.0 | 0.00 | 0.00 | 0.00 | 26 | 1014.7 |
| 20260506175108 | 78 | 355 | 2.6 | 7.0 | 0.00 | 0.00 | 0.00 | 27 | 1014.8 |
| 20260506174208 | 78 | 303 | 2.6 | 7.0 | 0.00 | 0.00 | 0.00 | 27 | 1014.8 |
| 20260506173308 | 76 | 244 | 2.6 | 7.8 | 0.00 | 0.00 | 0.00 | 29 | 1014.9 |
| 20260506171509 | 76 | 253 | 2.6 | 6.1 | 0.00 | 0.00 | 0.00 | 28 | 1014.8 |
| 20260506170609 | 77 | 261 | 1.7 | 8.7 | 0.00 | 0.00 | 0.00 | 28 | 1014.8 |
| 20260506164809 | 74 | 303 | 2.6 | 5.2 | 0.00 | 0.00 | 0.00 | 29 | 1014.8 |
| 20260506163908 | 75 | 293 | 1.7 | 7.0 | 0.00 | 0.00 | 0.00 | 29 | 1014.7 |
| 20260506163008 | 74 | 172 | 2.6 | 7.0 | 0.00 | 0.00 | 0.00 | 32 | 1014.8 |
| 20260506161208 | 72 | 136 | 0.9 | 3.5 | 0.00 | 0.00 | 0.00 | 32 | 1014.7 |
| 20260506160308 | 72 | 165 | 1.7 | 3.5 | 0.00 | 0.00 | 0.00 | 33 | 1014.7 |
| 20260506152708 | 70 | 347 | 1.7 | 4.3 | 0.00 | 0.00 | 0.00 | 35 | 1014.9 |
| 20260506151808 | 70 | 73 | 1.7 | 3.5 | 0.00 | 0.00 | 0.00 | 35 | 1014.9 |
| 20260506150908 | 69 | 123 | 0.0 | 3.5 | 0.00 | 0.00 | 0.00 | 36 | 1014.9 |
| 20260506150008 | 68 | 146 | 0.0 | 0.9 | 0.00 | 0.00 | 0.00 | 38 | 1014.8 |
| 20260506145108 | 67 | 146 | 0.9 | 1.7 | 0.00 | 0.00 | 0.00 | 39 | 1014.7 |
| 20260506144208 | 66 | 146 | 0.9 | 2.6 | 0.00 | 0.00 | 0.00 | 40 | 1014.7 |
| 20260506143308 | 66 | 146 | 0.9 | 3.5 | 0.00 | 0.00 | 0.00 | 42 | 1014.6 |
| 20260506142408 | 65 | 147 | 0.9 | 3.5 | 0.00 | 0.00 | 0.00 | 43 | 1014.5 |
| 20260506141509 | 64 | 148 | 0.9 | 3.5 | 0.00 | 0.00 | 0.00 | 44 | 1014.4 |
| 20260506140608 | 64 | 145 | 0.9 | 3.5 | 0.00 | 0.00 | 0.00 | 44 | 1014.3 |
| 20260506135708 | 63 | 114 | 0.9 | 2.6 | 0.00 | 0.00 | 0.00 | 45 | 1014.2 |
| 20260506134808 | 62 | 160 | 1.7 | 5.2 | 0.00 | 0.00 | 0.00 | 45 | 1014.0 |
| 20260506133908 | 62 | 175 | 0.9 | 2.6 | 0.00 | 0.00 | 0.00 | 46 | 1013.9 |
| 20260506133008 | 61 | 175 | 0.0 | 2.6 | 0.00 | 0.00 | 0.00 | 48 | 1013.8 |
| 20260506131208 | 58 | 0 | 0.0 | 0.0 | 0.00 | 0.00 | 0.00 | 51 | 1013.6 |
| 20260506125408 | 57 | 0 | 0.0 | 0.0 | 0.00 | 0.00 | 0.00 | 52 | 1013.5 |
| 20260506124508 | 57 | 0 | 0.0 | 0.0 | 0.00 | 0.00 | 0.00 | 51 | 1013.4 |
| 20260506123608 | 57 | 0 | 0.0 | 0.0 | 0.00 | 0.00 | 0.00 | 50 | 1013.3 |
| 20260506121808 | 59 | 175 | 1.7 | 2.6 | 0.00 | 0.00 | 0.00 | 47 | 1013.0 |
| 20260506120908 | 59 | 174 | 0.9 | 2.6 | 0.00 | 0.00 | 0.00 | 46 | 1012.9 |
| 20260506120008 | 59 | 175 | 0.9 | 2.6 | 0.00 | 0.00 | 0.00 | 47 | 1012.9 |
| 20260506115108 | 60 | 175 | 1.7 | 2.6 | 0.00 | 0.00 | 0.00 | 45 | 1012.9 |
| 20260506114208 | 60 | 185 | 1.7 | 3.5 | 0.00 | 0.00 | 0.00 | 45 | 1012.9 |